Change the Weather History Date:

Saturday, August 16, 2014

  Actual Average Record
Temperature  
Mean Temperature 80 °F -  
Max Temperature 93 °F 86 °F 100 °F (1998)
Min Temperature 66 °F 61 °F 59 °F (2010)
Cooling Degree Days 14    
Growing Degree Days 30 (Base 50)    
Moisture  
Dew Point 64 °F    
Average Humidity 62    
Maximum Humidity 88    
Minimum Humidity 34    
Precipitation  
Precipitation 0.00 in - - ()
Sea Level Pressure  
Sea Level Pressure 29.91 in    
Wind  
Wind Speed 5 mph (NE)    
Max Wind Speed 10 mph    
Max Gust Speed 16 mph    
Visibility 9 miles    
Events      
Averages and records for this station are not official NWS values.
T = Trace of Precipitation, MM = Missing Value Source: NWS Daily Summary

Daily Weather History Graph

Daily Weather History Graph

Search for Another Location

Airport or City:

Trip Planner

Search our weather history database for the weather conditions in past years. The results will help you decide how hot, cold, wet, or windy it might be!

Date:

Astronomy

Aug. 16, 2014 Rise Set
Actual Time 6:51 AM CDT 8:30 PM CDT
Civil Twilight 6:23 AM CDT 8:58 PM CDT
Nautical Twilight 5:49 AM CDT 9:32 PM CDT
Astronomical Twilight 5:12 AM CDT 10:08 PM CDT
Moon No Moon Rise 1:35 PM CDT (8/16)
Length of Visible Light 14h 35m
Length of Day
13h 38m
Waning Gibbous, 58% of the Moon is Illuminated
Aug 16
Waning Gibbous
Aug 17
Last Quarter
Aug 25
New
Sep 2
First Quarter
Sep 8
Full

Hourly Weather History & Observations

Time (CDT) Temp. Heat Index Dew Point Humidity Pressure Visibility Wind Dir Wind Speed Gust Speed Precip Events Conditions
12:15 AM 75.2 °F - 66.2 °F 73% 29.87 in 10.0 mi ENE 5.8 mph - N/A   Clear
12:35 AM 73.4 °F - 66.2 °F 78% 29.86 in 10.0 mi East 5.8 mph - N/A   Clear
12:55 AM 73.4 °F - 66.2 °F 78% 29.86 in 10.0 mi Calm Calm - N/A   Clear
1:15 AM 71.6 °F - 64.4 °F 78% 29.85 in 10.0 mi Calm Calm - N/A   Clear
1:35 AM 71.6 °F - 64.4 °F 78% 29.85 in 10.0 mi Calm Calm - N/A   Clear
1:55 AM 71.6 °F - 64.4 °F 78% 29.85 in 10.0 mi Calm Calm - N/A   Clear
2:15 AM 69.8 °F - 64.4 °F 83% 29.85 in 10.0 mi Calm Calm - N/A   Clear
2:35 AM 69.8 °F - 64.4 °F 83% 29.85 in 10.0 mi Calm Calm - N/A   Clear
2:55 AM 71.6 °F - 64.4 °F 78% 29.85 in 10.0 mi West 3.5 mph - N/A   Clear
3:15 AM 69.8 °F - 64.4 °F 83% 29.85 in 10.0 mi West 4.6 mph - N/A   Clear
3:35 AM 69.8 °F - 62.6 °F 78% 29.85 in 10.0 mi West 4.6 mph - N/A   Clear
3:55 AM 68.0 °F - 62.6 °F 83% 29.85 in 10.0 mi WNW 4.6 mph - N/A   Clear
4:15 AM 66.2 °F - 62.6 °F 88% 29.85 in 10.0 mi WNW 5.8 mph - N/A   Clear
4:35 AM 66.2 °F - 62.6 °F 88% 29.86 in 10.0 mi NNW 4.6 mph - N/A   Clear
4:55 AM 68.0 °F - 62.6 °F 83% 29.86 in 9.0 mi North 4.6 mph - N/A   Clear
5:15 AM 68.0 °F - 62.6 °F 83% 29.86 in 9.0 mi North 5.8 mph - N/A   Clear
5:35 AM 68.0 °F - 62.6 °F 83% 29.87 in 8.0 mi North 3.5 mph - N/A   Clear
5:55 AM 66.2 °F - 62.6 °F 88% 29.88 in 5.0 mi West 6.9 mph - N/A   Clear
6:15 AM 66.2 °F - 62.6 °F 88% 29.89 in 5.0 mi NW 5.8 mph - N/A   Clear
6:35 AM 66.2 °F - 62.6 °F 88% 29.90 in 7.0 mi NW 5.8 mph - N/A   Clear
6:55 AM 68.0 °F - 62.6 °F 83% 29.90 in 7.0 mi NNW 5.8 mph - N/A   Clear
7:15 AM 68.0 °F - 62.6 °F 83% 29.91 in 5.0 mi North 5.8 mph - N/A   Clear
7:35 AM 68.0 °F - 64.4 °F 88% 29.91 in 4.0 mi North 5.8 mph - N/A   Clear
7:55 AM 69.8 °F - 64.4 °F 83% 29.92 in 5.0 mi NE 4.6 mph - N/A   Clear
8:15 AM 71.6 °F - 66.2 °F 83% 29.92 in 5.0 mi NE 4.6 mph - N/A   Partly Cloudy
8:35 AM 71.6 °F - 66.2 °F 83% 29.93 in 7.0 mi ENE 4.6 mph - N/A   Partly Cloudy
8:55 AM 73.4 °F - 66.2 °F 78% 29.93 in 9.0 mi ENE 3.5 mph - N/A   Partly Cloudy
9:15 AM 75.2 °F - 66.2 °F 73% 29.93 in 10.0 mi NE 3.5 mph - N/A   Clear
9:35 AM 75.2 °F - 66.2 °F 73% 29.94 in 10.0 mi NE 3.5 mph - N/A   Clear
9:55 AM 77.0 °F - 66.2 °F 69% 29.94 in 10.0 mi ENE 4.6 mph - N/A   Clear
10:15 AM 78.8 °F - 68.0 °F 69% 29.95 in 10.0 mi East 4.6 mph - N/A   Clear
10:35 AM 80.6 °F 82.7 °F 66.2 °F 61% 29.95 in 10.0 mi NNE 3.5 mph - N/A   Clear
10:55 AM 80.6 °F 82.7 °F 66.2 °F 61% 29.95 in 10.0 mi NE 4.6 mph - N/A   Clear
11:15 AM 82.4 °F 84.6 °F 66.2 °F 58% 29.96 in 10.0 mi NNE 4.6 mph - N/A   Clear
11:35 AM 82.4 °F 84.6 °F 66.2 °F 58% 29.96 in 10.0 mi Calm Calm - N/A   Clear
11:55 AM 84.2 °F 87.3 °F 68.0 °F 58% 29.96 in 10.0 mi East 3.5 mph - N/A   Clear
12:15 PM 84.2 °F 87.3 °F 68.0 °F 58% 29.96 in 10.0 mi NE 4.6 mph - N/A   Clear
12:35 PM 87.8 °F 92.6 °F 69.8 °F 55% 29.96 in 10.0 mi NE 4.6 mph - N/A   Clear
12:55 PM 87.8 °F 91.4 °F 68.0 °F 52% 29.95 in 10.0 mi East 6.9 mph - N/A   Clear
1:15 PM 87.8 °F 91.4 °F 68.0 °F 52% 29.95 in 10.0 mi ENE 6.9 mph - N/A   Clear
1:35 PM 87.8 °F 91.4 °F 68.0 °F 52% 29.95 in 10.0 mi NNE 4.6 mph - N/A   Clear
1:55 PM 89.6 °F 93.4 °F 68.0 °F 49% 29.94 in 10.0 mi North 4.6 mph - N/A   Clear
2:15 PM 89.6 °F 92.2 °F 66.2 °F 46% 29.94 in 10.0 mi NNW 8.1 mph 16.1 mph N/A   Clear
2:35 PM 89.6 °F 92.2 °F 66.2 °F 46% 29.93 in 10.0 mi NNW 10.4 mph - N/A   Clear
2:55 PM 91.4 °F 93.2 °F 64.4 °F 41% 29.93 in 10.0 mi NNE 8.1 mph - N/A   Clear
3:15 PM 91.4 °F 93.2 °F 64.4 °F 41% 29.93 in 10.0 mi North 3.5 mph - N/A   Clear
3:35 PM 93.2 °F 94.1 °F 62.6 °F 36% 29.93 in 10.0 mi NNE 4.6 mph - N/A   Clear
3:55 PM 93.2 °F 94.1 °F 62.6 °F 36% 29.92 in 10.0 mi NE 6.9 mph - N/A   Clear
4:15 PM 93.2 °F 94.1 °F 62.6 °F 36% 29.92 in 10.0 mi NNW 4.6 mph - N/A   Clear
4:35 PM 93.2 °F 94.1 °F 62.6 °F 36% 29.92 in 10.0 mi North 5.8 mph - N/A   Clear
4:55 PM 93.2 °F 94.1 °F 62.6 °F 36% 29.92 in 10.0 mi NE 9.2 mph - N/A   Clear
5:15 PM 93.2 °F 94.1 °F 62.6 °F 36% 29.91 in 10.0 mi ENE 6.9 mph - N/A   Clear
5:35 PM 93.2 °F 93.3 °F 60.8 °F 34% 29.91 in 10.0 mi ENE 5.8 mph - N/A   Clear
5:55 PM 93.2 °F 94.1 °F 62.6 °F 36% 29.91 in 10.0 mi Calm Calm - N/A   Clear
6:15 PM 93.2 °F 93.3 °F 60.8 °F 34% 29.91 in 10.0 mi NNW 6.9 mph - N/A   Clear
6:35 PM 93.2 °F 93.3 °F 60.8 °F 34% 29.91 in 10.0 mi Calm Calm - N/A   Clear
6:55 PM 91.4 °F 91.4 °F 60.8 °F 36% 29.91 in 10.0 mi NE 5.8 mph - N/A   Clear
7:15 PM 89.6 °F 90.1 °F 62.6 °F 40% 29.90 in 10.0 mi East 8.1 mph - N/A   Clear
7:35 PM 91.4 °F 92.1 °F 62.6 °F 38% 29.90 in 10.0 mi East 9.2 mph - N/A   Clear
7:55 PM 89.6 °F 90.1 °F 62.6 °F 40% 29.91 in 10.0 mi East 8.1 mph - N/A   Clear
8:15 PM 87.8 °F 88.5 °F 62.6 °F 43% 29.91 in 10.0 mi East 8.1 mph - N/A   Clear
8:35 PM 84.2 °F 85.6 °F 64.4 °F 51% 29.92 in 10.0 mi East 9.2 mph - N/A   Clear
8:55 PM 84.2 °F 85.0 °F 62.6 °F 48% 29.92 in 10.0 mi East 10.4 mph - N/A   Clear
9:15 PM 82.4 °F 83.9 °F 64.4 °F 54% 29.93 in 10.0 mi ESE 10.4 mph - N/A   Clear
9:35 PM 80.6 °F 82.3 °F 64.4 °F 58% 29.93 in 10.0 mi ESE 9.2 mph - N/A   Clear
9:55 PM 80.6 °F 82.3 °F 64.4 °F 58% 29.95 in 10.0 mi ESE 9.2 mph - N/A   Clear
10:15 PM 78.8 °F - 64.4 °F 61% 29.96 in 10.0 mi ESE 6.9 mph - N/A   Clear
10:35 PM 78.8 °F - 64.4 °F 61% 29.97 in 10.0 mi ESE 5.8 mph - N/A   Clear
10:55 PM 78.8 °F - 64.4 °F 61% 29.97 in 10.0 mi ESE 5.8 mph - N/A   Clear
11:15 PM 77.0 °F - 64.4 °F 65% 29.97 in 10.0 mi SE 5.8 mph - N/A   Clear
11:35 PM 75.2 °F - 64.4 °F 69% 29.97 in 10.0 mi East 6.9 mph - N/A   Clear
11:55 PM 75.2 °F - 64.4 °F 69% 29.97 in 10.0 mi Calm Calm - N/A   Clear